Погода в Сайвуне

Йемен     15°55′56″N   48°45′04″E
темп.,
°C
ветер,
м/с
пор.,
м/с
влажн.,
%
обл.,
%
осадки,
мм/ч
давл.,
гПа
погр.,
м
27 ноября, сб
сб2700:00+19св11415 0.0 101612
03:00+19св224364 0.0 101612
06:00+17св11505 0.0 101811
09:00+25в24290 0.0 1018718
12:00+30всв34200 0.0 10151697
15:00+31всв56170 0.0 10122755
18:00+25ссв611240 0.0 1015143
21:00+22св44260 0.0 101745
28 ноября, вс
вс2800:00+19св33320 0.0 101722
03:00+17ссв22380 0.0 101715
06:00+16ссв22410 0.0 101911
09:00+24всв35250 0.0 1019831
12:00+30всв67140 0.0 10151952
15:00+30св77125 0.0 10132399
18:00+24ссв58200 0.0 101696
21:00+21ссв46280 0.0 101857
29 ноября, пн
пн2900:00+19ссв34334 0.0 101728
03:00+16св22401 0.0 101714
06:00+15ссв22455 0.0 101911
09:00+24св46295 0.0 1020954
12:00+28св67195 0.0 10162087
15:00+29ссв66177 0.0 10132268
18:00+23ссв59260 0.0 1016112
21:00+20ссв47330 0.0 101897
30 ноября, вт
вт3000:00+18ссв33380 0.0 101816
03:00+16ссв33441 0.0 101813
06:00+14с22480 0.0 101911
09:00+22ссв35260 0.0 1019840
12:00+27с78155 0.0 10152083
15:00+27ссв8810100 0.0 10132201
18:00+20ссв45187 0.0 101533
21:00+16ссв332491 0.0 101716
1 декабря, ср
ср100:00+14ссв222811 0.0 101611
03:00+13с223158 0.0 101611
06:00+12ссв11365 0.0 101711
09:00+20св13234 0.0 1018750
12:00+25ссв561792 0.0 10141986
15:00+26ссв55157 0.0 10122135
18:00+20ссв56210 0.0 101462
21:00+17ссв33260 0.0 101618